When you browse on this site, cookies collect data to enhance your experience and personalize the content and advertising you see.
Visit our Privacy Policy to learn more. By continuing to use the site, you agree to this use of cookies and data.
  • Em Portugal
  • Lista de países
  • Para 7 dias
  • Temperatura da água
  • Mapas de satélite
  • Mapa do tempo
  • Widgets de tempo
  • user-avatar
    Iniciar Sessão

    Previsão horária em Ramadi

    Hoje, 16 Julho, Terça-feira

    Tempo Temperatura Precipitação Vento Pressão Humidade
    00:00 +34°C° 0 mm 6 m/s 746 mmHg 23%
    01:00 +34°C° 0 mm 5 m/s 746 mmHg 27%
    02:00 +33°C° 0 mm 5 m/s 746 mmHg 31%
    03:00 +32°C° 0 mm 5 m/s 746 mmHg 36%
    04:00 +32°C° 0 mm 5 m/s 746 mmHg 35%
    05:00 +30°C° 0 mm 5 m/s 747 mmHg 34%
    06:00 +30°C° 0 mm 6 m/s 747 mmHg 34%
    07:00 +33°C° 0 mm 6 m/s 747 mmHg 32%
    08:00 +34°C° 0 mm 7 m/s 747 mmHg 30%
    09:00 +37°C° 0 mm 8 m/s 747 mmHg 28%
    10:00 +39°C° 0 mm 7 m/s 747 mmHg 25%
    11:00 +41°C° 0 mm 7 m/s 747 mmHg 21%
    12:00 +42°C° 0 mm 6 m/s 747 mmHg 18%
    13:00 +44°C° 0 mm 7 m/s 747 mmHg 16%
    14:00 +45°C° 0 mm 7 m/s 746 mmHg 15%
    15:00 +46°C° 0 mm 7 m/s 745 mmHg 13%
    16:00 +45°C° 0 mm 7 m/s 745 mmHg 13%
    17:00 +44°C° 0 mm 7 m/s 745 mmHg 14%
    18:00 +44°C° 0 mm 6 m/s 745 mmHg 14%
    19:00 +41°C° 0 mm 6 m/s 745 mmHg 16%
    20:00 +39°C° 0 mm 5 m/s 745 mmHg 19%
    21:00 +36°C° 0 mm 4 m/s 745 mmHg 21%
    22:00 +35°C° 0 mm 4 m/s 745 mmHg 21%
    23:00 +35°C° 0 mm 5 m/s 745 mmHg 22%

    Amanhã, 17 Julho, Quarta-feira

    Tempo Temperatura Precipitação Vento Pressão Humidade
    00:00 +34°C° 0 mm 5 m/s 746 mmHg 22%
    01:00 +34°C° 0 mm 5 m/s 745 mmHg 23%
    02:00 +33°C° 0 mm 6 m/s 745 mmHg 24%
    03:00 +33°C° 0 mm 6 m/s 745 mmHg 25%
    04:00 +32°C° 0 mm 7 m/s 746 mmHg 29%
    05:00 +30°C° 0 mm 7 m/s 746 mmHg 33%
    06:00 +29°C° 0 mm 7 m/s 746 mmHg 37%
    07:00 +32°C° 0 mm 7 m/s 747 mmHg 33%
    08:00 +34°C° 0 mm 7 m/s 747 mmHg 29%
    09:00 +36°C° 0 mm 7 m/s 747 mmHg 25%
    10:00 +39°C° 0 mm 7 m/s 747 mmHg 21%
    11:00 +41°C° 0 mm 7 m/s 747 mmHg 17%
    12:00 +44°C° 0 mm 7 m/s 747 mmHg 14%
    13:00 +44°C° 0 mm 7 m/s 746 mmHg 13%
    14:00 +45°C° 0 mm 7 m/s 746 mmHg 12%
    15:00 +46°C° 0 mm 7 m/s 745 mmHg 11%
    16:00 +45°C° 0 mm 7 m/s 745 mmHg 11%
    17:00 +45°C° 0 mm 7 m/s 745 mmHg 12%
    18:00 +45°C° 0 mm 6 m/s 745 mmHg 12%
    19:00 +41°C° 0 mm 5 m/s 745 mmHg 15%
    20:00 +37°C° 0 mm 3 m/s 745 mmHg 17%
    21:00 +35°C° 0 mm 2 m/s 745 mmHg 20%
    22:00 +34°C° 0 mm 2 m/s 745 mmHg 21%
    23:00 +33°C° 0 mm 1 m/s 745 mmHg 23%

    Depois de amanhã, 18 Julho, Quinta-feira

    Tempo Temperatura Precipitação Vento Pressão Humidade
    00:00 +32°C° 0 mm 1 m/s 745 mmHg 24%
    01:00 +32°C° 0 mm 2 m/s 745 mmHg 23%
    02:00 +34°C° 0 mm 4 m/s 745 mmHg 21%
    03:00 +34°C° 0 mm 5 m/s 746 mmHg 20%
    04:00 +34°C° 0 mm 5 m/s 746 mmHg 21%
    05:00 +33°C° 0 mm 5 m/s 746 mmHg 22%
    06:00 +33°C° 0 mm 6 m/s 747 mmHg 23%
    07:00 +35°C° 0 mm 6 m/s 747 mmHg 20%
    08:00 +38°C° 0 mm 6 m/s 747 mmHg 17%
    09:00 +41°C° 0 mm 7 m/s 747 mmHg 14%
    10:00 +43°C° 0 mm 7 m/s 747 mmHg 13%
    11:00 +45°C° 0 mm 6 m/s 747 mmHg 12%
    12:00 +46°C° 0 mm 6 m/s 747 mmHg 11%
    13:00 +47°C° 0 mm 7 m/s 747 mmHg 11%
    14:00 +49°C° 0 mm 7 m/s 746 mmHg 11%
    15:00 +49°C° 0 mm 7 m/s 746 mmHg 11%
    16:00 +47°C° 0 mm 7 m/s 745 mmHg 12%
    17:00 +47°C° 0 mm 6 m/s 745 mmHg 13%
    18:00 +46°C° 0 mm 5 m/s 745 mmHg 14%
    19:00 +43°C° 0 mm 5 m/s 745 mmHg 17%
    20:00 +41°C° 0 mm 4 m/s 746 mmHg 20%
    21:00 +38°C° 0 mm 4 m/s 746 mmHg 23%
    22:00 +36°C° 0 mm 3 m/s 746 mmHg 24%
    23:00 +35°C° 0 mm 3 m/s 746 mmHg 25%

    19 Julho, Sexta-feira

    Tempo Temperatura Precipitação Vento Pressão Humidade
    00:00 +34°C° 0 mm 2 m/s 746 mmHg 26%
    01:00 +34°C° 0 mm 3 m/s 746 mmHg 26%
    02:00 +34°C° 0 mm 3 m/s 746 mmHg 26%
    03:00 +34°C° 0 mm 4 m/s 746 mmHg 25%
    04:00 +33°C° 0 mm 4 m/s 746 mmHg 26%
    05:00 +32°C° 0 mm 5 m/s 746 mmHg 27%
    06:00 +32°C° 0 mm 5 m/s 747 mmHg 28%
    07:00 +33°C° 0 mm 6 m/s 747 mmHg 28%
    08:00 +35°C° 0 mm 7 m/s 747 mmHg 28%
    09:00 +38°C° 0 mm 8 m/s 748 mmHg 28%
    10:00 +40°C° 0 mm 7 m/s 747 mmHg 25%
    11:00 +43°C° 0 mm 7 m/s 747 mmHg 22%
    12:00 +44°C° 0 mm 6 m/s 747 mmHg 18%
    13:00 +45°C° 0 mm 6 m/s 746 mmHg 17%
    14:00 +46°C° 0 mm 6 m/s 746 mmHg 15%
    15:00 +46°C° 0 mm 6 m/s 745 mmHg 14%
    16:00 +46°C° 0 mm 6 m/s 745 mmHg 14%
    17:00 +45°C° 0 mm 6 m/s 745 mmHg 14%
    18:00 +45°C° 0 mm 6 m/s 745 mmHg 14%
    19:00 +42°C° 0 mm 6 m/s 745 mmHg 15%
    20:00 +40°C° 0 mm 5 m/s 746 mmHg 17%
    21:00 +37°C° 0 mm 5 m/s 746 mmHg 18%
    22:00 +36°C° 0 mm 5 m/s 746 mmHg 19%
    23:00 +35°C° 0 mm 5 m/s 746 mmHg 19%

    20 Julho, Sábado

    Tempo Temperatura Precipitação Vento Pressão Humidade
    00:00 +35°C° 0 mm 6 m/s 746 mmHg 20%
    01:00 +34°C° 0 mm 6 m/s 746 mmHg 22%
    02:00 +33°C° 0 mm 6 m/s 746 mmHg 24%
    03:00 +33°C° 0 mm 5 m/s 746 mmHg 27%
    04:00 +32°C° 0 mm 6 m/s 746 mmHg 32%
    05:00 +32°C° 0 mm 6 m/s 747 mmHg 37%
    06:00 +32°C° 0 mm 7 m/s 747 mmHg 43%
    07:00 +34°C° 0 mm 7 m/s 747 mmHg 38%
    08:00 +36°C° 0 mm 7 m/s 747 mmHg 34%
    09:00 +39°C° 0 mm 7 m/s 748 mmHg 29%
    10:00 +41°C° 0 mm 7 m/s 747 mmHg 24%
    11:00 +44°C° 0 mm 7 m/s 747 mmHg 20%
    12:00 +46°C° 0 mm 6 m/s 747 mmHg 15%
    13:00 +47°C° 0 mm 6 m/s 747 mmHg 14%
    14:00 +48°C° 0 mm 5 m/s 746 mmHg 13%
    15:00 +49°C° 0 mm 5 m/s 746 mmHg 12%
    16:00 +48°C° 0 mm 5 m/s 745 mmHg 12%
    17:00 +48°C° 0 mm 4 m/s 745 mmHg 12%
    18:00 +47°C° 0 mm 4 m/s 745 mmHg 12%
    19:00 +44°C° 0 mm 4 m/s 745 mmHg 14%
    20:00 +42°C° 0 mm 3 m/s 746 mmHg 16%
    21:00 +38°C° 0 mm 3 m/s 746 mmHg 19%
    22:00 +38°C° 0 mm 3 m/s 746 mmHg 19%
    23:00 +38°C° 0 mm 4 m/s 746 mmHg 19%

    21 Julho, Domingo

    Tempo Temperatura Precipitação Vento Pressão Humidade
    00:00 +37°C° 0 mm 4 m/s 745 mmHg 19%
    01:00 +37°C° 0 mm 4 m/s 745 mmHg 20%
    02:00 +36°C° 0 mm 4 m/s 745 mmHg 21%
    03:00 +36°C° 0 mm 4 m/s 745 mmHg 22%
    04:00 +35°C° 0 mm 5 m/s 745 mmHg 24%
    05:00 +35°C° 0 mm 6 m/s 746 mmHg 26%
    06:00 +34°C° 0 mm 7 m/s 746 mmHg 28%
    07:00 +36°C° 0 mm 7 m/s 746 mmHg 26%
    08:00 +40°C° 0 mm 7 m/s 746 mmHg 25%
    09:00 +43°C° 0 mm 7 m/s 747 mmHg 23%
    10:00 +45°C° 0 mm 7 m/s 746 mmHg 20%
    11:00 +47°C° 0 mm 7 m/s 746 mmHg 16%
    12:00 +50°C° 0 mm 7 m/s 746 mmHg 13%
    13:00 +51°C° 0 mm 7 m/s 746 mmHg 11%
    14:00 +52°C° 0 mm 7 m/s 745 mmHg 10%
    15:00 +53°C° 0 mm 7 m/s 745 mmHg 9%
    16:00 +52°C° 0 mm 7 m/s 745 mmHg 9%
    17:00 +51°C° 0 mm 7 m/s 744 mmHg 9%
    18:00 +50°C° 0 mm 7 m/s 744 mmHg 9%
    19:00 +47°C° 0 mm 6 m/s 745 mmHg 10%
    20:00 +45°C° 0 mm 6 m/s 745 mmHg 11%
    21:00 +42°C° 0 mm 5 m/s 745 mmHg 12%
    22:00 +41°C° 0 mm 5 m/s 745 mmHg 14%
    23:00 +40°C° 0 mm 5 m/s 745 mmHg 16%
    Mostrar mais